{"data":{"norad_id":57166,"epoch":"2026-09-19T22:51:20.054016Z","epoch_age_seconds":61448,"freshness":"FRESH","line1":"1 57166U 23091A   26262.95231544 -.00000026  00000+0  72739-5 0  9992","line2":"2 57166  98.5988 315.9452 0002870 248.0097 112.0777 14.24052716168002","mean_motion":14.24052716,"eccentricity":0.000287,"inclination_deg":98.5988,"raan_deg":315.9452,"arg_perigee_deg":248.0097,"mean_anomaly_deg":112.0777,"bstar":7.2739e-6,"rev_number":16800,"period_min":101.11985208278,"perigee_km":809.61586809663,"apogee_km":813.74282267889,"semimajor_km":7189.8163453878,"source":"CELESTRAK","updated_at":"2026-09-20T09:00:34.382358Z"}}